When you browse on this site, cookies collect data to enhance your experience and personalize the content and advertising you see.
Visit our Privacy Policy to learn more. By continuing to use the site, you agree to this use of cookies and data.
  • In Hungary
  • List of Countries
  • For 7 days
  • Water Temperature
  • Satellite Maps
  • Weather Map
  • News
  • Weather Widgets
  • user-avatar
    Login

    Hourly Weather Mamaaul

    Today, 20 November, Tuesday

    Time Temperature Precipitation Wind Pressure Humidity
    00:00 +4°C° 0 mm 3 mps 721 mmHg 59%
    01:00 +5°C° 0 mm 3 mps 721 mmHg 56%
    02:00 +5°C° 0 mm 3 mps 721 mmHg 53%
    03:00 +5°C° 0 mm 3 mps 720 mmHg 50%
    04:00 +5°C° 0 mm 4 mps 720 mmHg 49%
    05:00 +5°C° 0 mm 4 mps 719 mmHg 48%
    06:00 +6°C° 0 mm 4 mps 719 mmHg 47%
    07:00 +7°C° 0 mm 4 mps 719 mmHg 46%
    08:00 +8°C° 0 mm 4 mps 719 mmHg 45%
    09:00 +11°C° 0 mm 3 mps 718 mmHg 44%
    10:00 +12°C° 0 mm 3 mps 718 mmHg 44%
    11:00 +13°C° 0 mm 3 mps 717 mmHg 45%
    12:00 +15°C° 0 mm 2 mps 717 mmHg 46%
    13:00 +15°C° 0 mm 2 mps 716 mmHg 51%
    14:00 +14°C° 0 mm 2 mps 716 mmHg 56%
    15:00 +14°C° 0 mm 2 mps 716 mmHg 61%
    16:00 +13°C° 0 mm 2 mps 716 mmHg 66%
    17:00 +11°C° 0 mm 3 mps 716 mmHg 72%
    18:00 +9°C° 0 mm 3 mps 716 mmHg 77%
    19:00 +10°C° 0 mm 3 mps 716 mmHg 73%
    20:00 +10°C° 0 mm 3 mps 715 mmHg 69%
    21:00 +10°C° 0 mm 3 mps 715 mmHg 65%
    22:00 +10°C° 0 mm 3 mps 715 mmHg 66%
    23:00 +10°C° 0 mm 3 mps 715 mmHg 66%

    Tomorrow, 21 November, Wednesday

    Time Temperature Precipitation Wind Pressure Humidity
    00:00 +8°C° 0 mm 4 mps 715 mmHg 67%
    01:00 +8°C° 0.1 mm 4 mps 715 mmHg 71%
    02:00 +7°C° 0.1 mm 4 mps 715 mmHg 74%
    03:00 +7°C° 0.1 mm 5 mps 715 mmHg 78%
    04:00 +7°C° 1.1 mm 4 mps 716 mmHg 81%
    05:00 +7°C° 1.1 mm 4 mps 716 mmHg 85%
    06:00 +8°C° 1.1 mm 3 mps 716 mmHg 88%
    07:00 +7°C° 0.1 mm 4 mps 716 mmHg 86%
    08:00 +7°C° 0.1 mm 4 mps 716 mmHg 83%
    09:00 +8°C° 0.1 mm 4 mps 717 mmHg 81%
    10:00 +8°C° 0 mm 4 mps 716 mmHg 78%
    11:00 +9°C° 0 mm 5 mps 716 mmHg 74%
    12:00 +10°C° 0 mm 5 mps 716 mmHg 70%
    13:00 +9°C° 0 mm 5 mps 716 mmHg 72%
    14:00 +9°C° 0 mm 5 mps 716 mmHg 75%
    15:00 +8°C° 0 mm 5 mps 716 mmHg 77%
    16:00 +8°C° 0 mm 4 mps 716 mmHg 82%
    17:00 +7°C° 0 mm 4 mps 716 mmHg 87%
    18:00 +7°C° 0 mm 3 mps 716 mmHg 91%
    19:00 +7°C° 0 mm 3 mps 716 mmHg 91%
    20:00 +5°C° 0 mm 3 mps 716 mmHg 91%
    21:00 +6°C° 0 mm 2 mps 716 mmHg 91%
    22:00 +6°C° 0 mm 2 mps 716 mmHg 91%
    23:00 +6°C° 0 mm 2 mps 716 mmHg 91%

    Day after tomorrow, 22 November, Thursday

    Time Temperature Precipitation Wind Pressure Humidity
    00:00 +6°C° 0 mm 2 mps 716 mmHg 91%
    01:00 +6°C° 0 mm 2 mps 716 mmHg 92%
    02:00 +6°C° 0 mm 2 mps 715 mmHg 92%
    03:00 +6°C° 0 mm 2 mps 715 mmHg 92%
    04:00 +6°C° 0 mm 2 mps 715 mmHg 92%
    05:00 +6°C° 0 mm 2 mps 715 mmHg 93%
    06:00 +6°C° 0 mm 2 mps 715 mmHg 93%
    07:00 +6°C° 0.1 mm 2 mps 715 mmHg 92%
    08:00 +6°C° 0.1 mm 2 mps 716 mmHg 91%
    09:00 +6°C° 0.1 mm 2 mps 716 mmHg 89%
    10:00 +7°C° 0 mm 2 mps 716 mmHg 88%
    11:00 +7°C° 0 mm 2 mps 715 mmHg 87%
    12:00 +8°C° 0 mm 2 mps 715 mmHg 86%
    13:00 +7°C° 0 mm 2 mps 715 mmHg 87%
    14:00 +7°C° 0 mm 2 mps 715 mmHg 88%
    15:00 +7°C° 0 mm 2 mps 715 mmHg 89%
    16:00 +7°C° 0.1 mm 2 mps 715 mmHg 91%
    17:00 +6°C° 0.1 mm 2 mps 715 mmHg 92%
    18:00 +6°C° 0.1 mm 2 mps 715 mmHg 93%
    19:00 +6°C° 0 mm 2 mps 716 mmHg 93%
    20:00 +6°C° 0 mm 2 mps 716 mmHg 93%
    21:00 +7°C° 0 mm 1 mps 716 mmHg 92%
    22:00 +7°C° 0 mm 1 mps 716 mmHg 92%
    23:00 +7°C° 0 mm 1 mps 716 mmHg 92%

    23 November, Friday

    Time Temperature Precipitation Wind Pressure Humidity
    00:00 +7°C° 0 mm 1 mps 716 mmHg 91%
    01:00 +6°C° 0 mm 2 mps 716 mmHg 91%
    02:00 +5°C° 0 mm 2 mps 715 mmHg 91%
    03:00 +5°C° 0 mm 2 mps 715 mmHg 90%
    04:00 +5°C° 0 mm 2 mps 715 mmHg 90%
    05:00 +5°C° 0 mm 2 mps 715 mmHg 90%
    06:00 +5°C° 0 mm 2 mps 716 mmHg 90%
    07:00 +6°C° 0 mm 2 mps 716 mmHg 88%
    08:00 +6°C° 0 mm 2 mps 716 mmHg 87%
    09:00 +7°C° 0 mm 2 mps 717 mmHg 85%
    10:00 +7°C° 0 mm 2 mps 717 mmHg 84%
    11:00 +7°C° 0 mm 3 mps 717 mmHg 83%
    12:00 +8°C° 0 mm 3 mps 717 mmHg 82%
    13:00 +7°C° 0.1 mm 3 mps 717 mmHg 84%
    14:00 +7°C° 0.1 mm 3 mps 717 mmHg 86%
    15:00 +7°C° 0.1 mm 3 mps 717 mmHg 88%
    16:00 +5°C° 0.2 mm 4 mps 718 mmHg 89%
    17:00 +5°C° 0.2 mm 4 mps 719 mmHg 90%
    18:00 +3°C° 0.2 mm 5 mps 720 mmHg 91%
    19:00 +3°C° 0.2 mm 5 mps 721 mmHg 90%
    20:00 +2°C° 0.2 mm 5 mps 721 mmHg 90%
    21:00 +2°C° 0.2 mm 6 mps 722 mmHg 89%
    22:00 +2°C° 0 mm 5 mps 723 mmHg 89%
    23:00 +1°C° 0 mm 5 mps 723 mmHg 89%

    24 November, Saturday

    Time Temperature Precipitation Wind Pressure Humidity
    00:00 +1°C° 0 mm 5 mps 724 mmHg 90%
    01:00 0°C° 0 mm 4 mps 724 mmHg 90%
    02:00 +1°C° 0 mm 3 mps 724 mmHg 90%
    03:00 +1°C° 0 mm 3 mps 725 mmHg 91%
    04:00 +2°C° 0 mm 2 mps 725 mmHg 91%
    05:00 +2°C° 0 mm 2 mps 725 mmHg 90%
    06:00 +2°C° 0 mm 2 mps 726 mmHg 90%
    07:00 +2°C° 0 mm 2 mps 726 mmHg 87%
    08:00 +3°C° 0 mm 2 mps 727 mmHg 84%
    09:00 +4°C° 0 mm 2 mps 727 mmHg 82%
    10:00 +4°C° 0 mm 3 mps 727 mmHg 79%
    11:00 +5°C° 0 mm 3 mps 727 mmHg 77%
    12:00 +5°C° 0 mm 4 mps 727 mmHg 75%
    13:00 +5°C° 0 mm 4 mps 726 mmHg 76%
    14:00 +6°C° 0 mm 4 mps 726 mmHg 77%
    15:00 +6°C° 0 mm 5 mps 725 mmHg 78%
    16:00 +5°C° 0 mm 5 mps 725 mmHg 79%
    17:00 +3°C° 0 mm 5 mps 725 mmHg 80%
    18:00 +3°C° 0 mm 5 mps 725 mmHg 80%
    19:00 +3°C° 0 mm 5 mps 725 mmHg 79%
    20:00 +3°C° 0 mm 5 mps 724 mmHg 77%
    21:00 +4°C° 0 mm 4 mps 724 mmHg 75%
    22:00 +4°C° 0 mm 4 mps 724 mmHg 73%
    23:00 +4°C° 0 mm 4 mps 723 mmHg 71%

    25 November, Sunday

    Time Temperature Precipitation Wind Pressure Humidity
    00:00 +4°C° 0 mm 4 mps 723 mmHg 69%
    01:00 +4°C° 0 mm 3 mps 722 mmHg 67%
    02:00 +4°C° 0 mm 3 mps 721 mmHg 65%
    03:00 +5°C° 0 mm 2 mps 721 mmHg 63%
    04:00 +6°C° 0 mm 2 mps 721 mmHg 62%
    05:00 +6°C° 0 mm 2 mps 720 mmHg 60%
    06:00 +6°C° 0 mm 2 mps 720 mmHg 58%
    07:00 +7°C° 0 mm 2 mps 720 mmHg 56%
    08:00 +8°C° 0 mm 2 mps 719 mmHg 55%
    09:00 +9°C° 0 mm 2 mps 719 mmHg 53%
    10:00 +10°C° 0 mm 3 mps 719 mmHg 52%
    11:00 +11°C° 0 mm 3 mps 718 mmHg 52%
    12:00 +11°C° 0 mm 3 mps 718 mmHg 51%
    13:00 +11°C° 0 mm 3 mps 717 mmHg 56%
    14:00 +10°C° 0 mm 3 mps 717 mmHg 60%
    15:00 +10°C° 0 mm 3 mps 717 mmHg 65%
    16:00 +9°C° 0 mm 3 mps 717 mmHg 67%
    17:00 +8°C° 0 mm 3 mps 717 mmHg 70%
    18:00 +7°C° 0 mm 3 mps 717 mmHg 72%
    19:00 +7°C° 0 mm 3 mps 717 mmHg 71%
    20:00 +7°C° 0 mm 3 mps 717 mmHg 69%
    21:00 +7°C° 0 mm 3 mps 717 mmHg 68%
    22:00 +5°C° 0 mm 3 mps 717 mmHg 68%
    23:00 +5°C° 0 mm 3 mps 717 mmHg 67%
    Show more